Location: Malvern Link
(52.1333°N, 2.3000°W)
Time: 15:13:35
(UTC+00:00)

SO-50 - Pass Details

Date: 04 July 2022
Orbit: 585 x 698 km, 64.6° (Epoch: 11 August)

Event Time Altitude Azimuth Distance (km) Brightness Sun altitude
Exits shadow 01:32:07 - 251° (WSW) 2,489 ? -13.0°
Reaches altitude 10° 01:33:11 10° 255° (WSW) 2,093 ? -13.0°
Maximum altitude 01:37:42 41° 326° (NW) 994 ? -12.8°
Drops below altitude 10° 01:42:21 10° 37° (NE) 2,154 ? -12.5°
Sets 01:44:51 0° 44° (NE) 3,082 ? -12.4°
